Карточка аэропорта URRP

Внимание!
Информация на этой странице в стадии наполнения.
Если вы не увидели какой-то информации, или заметили неточность - пожалуйста сообщите нам!
Спасибо!
Команда RU-STAFF
Название аэропортаПлатов
Название аэропорта (англ.)Platov
Превышение282 ft. (86 m.)
Координаты47°29.634', 39°55.482'
Высота перехода3500 ft
Эшелон переходаFL50 (QNH >= 996); FL60 (QNH < 996)
Коды ответчика1001-1017
Зона ОрВДРостов-на-Дону РПИ (URRV)
Данные METARURRP 290830Z 30004MPS 270V340 9999 FEW/// SCT023 20/16 Q1010 R23/CLRD70 NOSIG RMK QFE750/1000
Проноз погоды (TAF)URRP 290755Z 2909/3009 25003G10MPS 9999 SCT016 SCT020CB TX23/2912Z TN13/3002Z TEMPO 2909/2912 FEW007 SCT020CB TEMPO 2921/3009 0800 FG BKN003 SCT020CB
NOTAMshow/hide NOTAM
AWOS   TABLE

Информация о ВПП

ВПП Длина ВПП (м.) Покрытие Курс ВПП Частота ILS
053900Цементобетон46111.5
233900Цементобетон226110.9

Диспетчерские позиции

Позывной Наименование органа УВД Частота
URRP_R_APPПлатов - Круг121.2
URRP_GNDПлатов - руление119.0
URRP_TWRПлатов-Вышка119.7
URRP_DELПлатов-деливери127.1
URRP_APPПлатов-подход128.2



Спутниковое изображение